Terminal Aerodrome Forecast
Issued by NWS Boise, ID

Home | Current Version | Previous Version | Text Only | Print | Product List | Glossary On
Versions: 1 2 3 4 5 6 7 8 9 10 11 12 13 14 15 16 17 18 19 20 21 22 23 24 25
000
FTUS45 KBOI 291740
TAFBNO
TAF
KBNO 291740Z 2918/3018 22022G34KT P6SM SCT080 BKN120
     FM300100 24012G20KT P6SM BKN070
     FM300700 23007KT P6SM BKN070=

USA.gov is the U.S. government's official web portal to all federal, state and local government web resources and services.